• Join FlightAware (Why Join?)
  • Login
  • US Flag 
10:21AM EST


 

Airport Tracker/Info


-or-


 

Live Flight TrackerFlight Track Log ✈ EJA589 ✈ 25-Apr-2013 ✈ KAUS - KTUL

Flight Track Log - Related Links

Times and Time Zones

All times are in EDT time to prevent confusion due to time zone crossing. See the EJA589 flight status page for this flight to view local times or setup timezone preferences in your user account.

Time Position Orientation Groundspeed Altitude Reporting Facility
EDT Latitude Longitude Course Direction KTS MPH feet Rate Location/Type
08:13AM 30.2608 -97.6839 13° North 198 228 5,900  Level Houston Center
08:14AM 30.3158 -97.7247 327° Northwest 222 255 8,700 2,878 Climbing Houston Center
08:15AM 30.3894 -97.7642 335° Northwest 274 315 11,800 2,927 Climbing Houston Center
08:16AM 30.4689 -97.8006 338° Northwest 297 342 14,700 2,927 Climbing Houston Center
08:17AM 30.5503 -97.8394 338° Northwest 309 356 17,800 2,585 Climbing Houston Center
08:18AM 30.7510 -97.5148 13° North  Level Estimated
08:18AM 30.6314 -97.8783 338° Northwest 310 357 20,000  Level Houston Center
08:19AM 30.7317 -97.9267 337° Northwest 327 376 22,700 1,756 Climbing Houston Center
08:20AM 30.8267 -97.9708 338° Northwest 356 410 23,600 1,024 Climbing Houston Center
08:21AM 30.9281 -98.0197 338° Northwest 382 440 24,800 1,077 Climbing Houston Center
08:21AM 30.9486 -98.0311 335° Northwest 397 457 25,000 1,247 Climbing Fort Worth Center
08:22AM 31.0486 -98.0778 338° Northwest 408 470 26,400 1,400 Climbing Fort Worth Center
08:23AM 31.1528 -98.1244 339° North 403 464 27,800 1,450 Climbing Fort Worth Center
08:24AM 31.2656 -98.0964 12° North 410 472 29,300 1,500 Climbing Fort Worth Center
08:25AM 31.3872 -98.0339 24° Northeast 424 488 30,800 1,550 Climbing Fort Worth Center
08:26AM 31.4981 -97.9714 26° Northeast 436 502 32,400 1,550 Climbing Fort Worth Center
08:27AM 31.6089 -97.9086 26° Northeast 441 507 33,900 1,500 Climbing Fort Worth Center
08:28AM 31.7197 -97.8481 25° Northeast 446 513 35,400 1,500 Climbing Fort Worth Center
08:29AM 31.8306 -97.7875 25° Northeast 441 507 36,900 1,450 Climbing Fort Worth Center
08:30AM 31.9394 -97.7242 26° Northeast 433 498 38,300 1,050 Climbing Fort Worth Center
08:31AM 32.0336 -97.6706 26° Northeast 433 498 39,000 350 Climbing Fort Worth Center
08:32AM 32.1464 -97.6072 25° Northeast 428 493 39,000  Level Fort Worth Center
08:33AM 32.2614 -97.5411 26° Northeast 440 506 39,000  Level Fort Worth Center
08:34AM 32.3678 -97.4797 26° Northeast 440 506 39,000  Level Fort Worth Center
08:35AM 32.4764 -97.4158 26° Northeast 433 498 39,000  Level Fort Worth Center
08:36AM 32.5850 -97.3542 26° Northeast 427 491 39,000  Level Fort Worth Center
08:37AM 32.7017 -97.2875 26° Northeast 422 486 39,000  Level Fort Worth Center
08:38AM 32.8122 -97.2256 25° Northeast 427 491 39,000  Level Fort Worth Center
08:39AM 32.9228 -97.1683 23° Northeast 433 498 39,000  Level Fort Worth Center
08:40AM 33.0231 -97.1311 17° North 421 484 39,000  Level Fort Worth Center
08:41AM 33.1356 -97.0883 18° North 423 487 39,000  Level Fort Worth Center
08:42AM 33.2461 -97.0458 18° North 415 478 39,000  Level Fort Worth Center
08:43AM 33.3567 -97.0056 17° North 410 472 39,000  Level Fort Worth Center
08:44AM 33.4756 -96.9603 18° North 410 472 39,000  Level Fort Worth Center
08:45AM 33.5858 -96.9172 18° North 410 472 39,000  Level Fort Worth Center
08:46AM 33.6964 -96.8767 17° North 415 478 39,000  Level Fort Worth Center
08:47AM 33.8089 -96.8336 18° North 415 478 39,000  Level Fort Worth Center
08:48AM 33.9192 -96.7878 19° North 422 486 39,000  Level Fort Worth Center
08:49AM 34.0275 -96.7494 16° North 417 480 39,000  Level Fort Worth Center
08:50AM 34.1214 -96.7136 18° North 411 473 39,000  Level Fort Worth Center
08:51AM 34.2297 -96.6725 17° North 400 460 39,000  Level Fort Worth Center
08:52AM 34.3336 -96.6289 19° North 395 455 39,000  Level Fort Worth Center
08:53AM 34.4419 -96.5850 18° North 400 460 39,000 -100 Level Fort Worth Center
08:54AM 34.5481 -96.5461 17° North 400 460 38,800 -1,250 Descending Fort Worth Center
08:55AM 34.6625 -96.5022 18° North 411 473 36,500 -2,400 Descending Fort Worth Center
08:56AM 34.7747 -96.4581 18° North 411 473 34,000 -2,550 Descending Fort Worth Center
08:57AM 34.8914 -96.4136 17° North 424 488 31,400 -2,529 Descending Fort Worth Center
08:58AM 35.0036 -96.3667 19° North 424 488 28,900 -2,750 Descending Fort Worth Center
08:59AM 35.1303 -96.3169 18° North 424 488 25,900 -2,773 Descending Fort Worth Center
09:00AM 35.2425 -96.2722 18° North 424 488 23,400 -2,260 Descending Fort Worth Center
09:02AM 35.3490 -96.2293 20° North  Level FlightAware Approximate
09:03AM 35.5092 -96.1658 20° North 373 429 17,500  Level Kansas City Center
09:04AM 35.6061 -96.1256 19° North 369 425 15,300 -2,162 Descending Kansas City Center
09:05AM 35.6886 -96.0961 16° North 363 418 13,500 -2,400 Descending Kansas City Center
09:06AM 35.8053 -96.0481 18° North 349 402 10,500 -1,624 Descending Kansas City Center
09:07AM 35.8839 -96.0367 North 293 337 9,900 -973 Descending Kansas City Center
09:08AM 35.9408 -96.0306 North 259 298 8,700 -2,614 Descending Kansas City Center
09:09AM 36.0075 -96.0247 North 260 299 5,500 -3,324 Descending Kansas City Center
09:09AM 36.0264 -96.0206 10° North 255 293 4,600 -1,324 Descending Kansas City Center
09:10AM 36.0867 -96.0169 North 266 306 4,000 -590 Descending Kansas City Center
09:10AM 36.1019 -96.0144 North 263 303 4,000  Level Kansas City Center
09:11AM 36.1617 -96.0125 North 272 313 4,000  Level Kansas City Center
09:11AM 36.1783 -96.0078 13° North 270 311 4,000 -600 Level Kansas City Center
09:12AM 36.2256 -95.9967 11° North 212 244 3,400 -677 Descending Kansas City Center
09:12AM 36.2378 -95.9919 17° North 237 273 3,300 -968 Descending Kansas City Center
09:13AM 36.2542 -95.9644 54° Northeast 126 145 2,400 -1,100 Descending Kansas City Center
09:13AM 36.2553 -95.9539 83° East 172 198 2,200 -727 Descending Kansas City Center
09:14AM 36.2497 -95.9133 100° East 120 138 1,600 -661 Descending Kansas City Center
09:15AM 36.2214 -95.8989 158° South 113 130 1,000 -474 Descending Kansas City Center
09:15AM 36.2200 -95.8972 136° Southeast 123 142 1,000  Level Kansas City Center